Easton, MD

12:13 PM EDT on September 28, 2016 (GMT -0400)
Easton / Newnam

Weather History for KESN - May, 2013

Change the Weather History Date:

Tuesday, May 28, 2013

  Actual Average Record
Temperature  
Mean Temperature 71 °F -  
Max Temperature 82 °F 75 °F 91 °F (1965)
Min Temperature 60 °F 54 °F 42 °F (1972)
Cooling Degree Days 6    
Growing Degree Days 21 (Base 50)    
Moisture  
Dew Point 60 °F    
Average Humidity 80    
Maximum Humidity 100    
Minimum Humidity 58    
Precipitation  
Precipitation 0.00 in - - ()
Sea Level Pressure  
Sea Level Pressure 30.20 in    
Wind  
Wind Speed 4 mph (South)    
Max Wind Speed 14 mph    
Max Gust Speed 21 mph    
Visibility 10 miles    
Events Rain , Thunderstorm    
Averages and records for this station are not official NWS values.
T = Trace of Precipitation, MM = Missing Value Source: NWS Daily Summary

Daily Weather History Graph

Daily Weather History Graph

Search for Another Location

Airport or City:

Trip Planner

Search our weather history database for the weather conditions in past years. The results will help you decide how hot, cold, wet, or windy it might be!

Date:

Astronomy

May. 28, 2013 Rise Set
Actual Time 5:42 AM EDT 8:20 PM EDT
Civil Twilight 5:11 AM EDT 8:51 PM EDT
Nautical Twilight 4:33 AM EDT 9:30 PM EDT
Astronomical Twilight 3:49 AM EDT 10:14 PM EDT
Moon 11:44 PM EDT 9:27 AM EDT
Length of Visible Light 15h 40m
Length of Day
14h 38m
Waning Gibbous, 83% of the Moon is Illuminated
May 28
Waning Gibbous
May 31
Last Quarter
Jun 8
New
Jun 16
First Quarter
Jun 23
Full

Hourly Weather History & Observations

Time (EDT) Temp. Heat Index Dew Point Humidity Pressure Visibility Wind Dir Wind Speed Gust Speed Precip Events Conditions
12:00 AM 62.6 °F - 52.5 °F 70% 30.25 in 10.0 mi SE 3.5 mph - N/A   Clear
12:20 AM 61.2 °F - 53.6 °F 76% 30.25 in 10.0 mi Calm Calm - N/A   Clear
12:40 AM 61.2 °F - 52.7 °F 74% 30.25 in 10.0 mi Calm Calm - N/A   Clear
1:00 AM 61.0 °F - 53.1 °F 75% 30.25 in 10.0 mi Calm Calm - N/A   Clear
1:20 AM 61.5 °F - 52.3 °F 72% 30.24 in 10.0 mi Calm Calm - N/A   Scattered Clouds
1:40 AM 61.7 °F - 52.9 °F 73% 30.24 in 10.0 mi Calm Calm - N/A   Mostly Cloudy
2:00 AM 61.3 °F - 54.0 °F 77% 30.24 in 10.0 mi Calm Calm - N/A   Mostly Cloudy
2:20 AM 61.3 °F - 54.0 °F 77% 30.24 in 10.0 mi Calm Calm - N/A   Mostly Cloudy
2:40 AM 61.5 °F - 54.3 °F 77% 30.23 in 10.0 mi Calm Calm - N/A   Mostly Cloudy
3:00 AM 61.7 °F - 54.3 °F 77% 30.23 in 10.0 mi Calm Calm - N/A   Mostly Cloudy
3:20 AM 61.2 °F - 54.5 °F 79% 30.22 in 10.0 mi Calm Calm - N/A   Mostly Cloudy
3:40 AM 60.6 °F - 54.5 °F 80% 30.22 in 10.0 mi SSE 3.5 mph - N/A   Scattered Clouds
4:00 AM 60.4 °F - 54.7 °F 81% 30.21 in 10.0 mi Calm Calm - N/A   Scattered Clouds
4:20 AM 60.4 °F - 55.0 °F 82% 30.21 in 10.0 mi SSE 6.9 mph - N/A   Scattered Clouds
4:40 AM 60.4 °F - 55.4 °F 83% 30.21 in 10.0 mi SE 3.5 mph - N/A   Clear
5:00 AM 60.1 °F - 55.6 °F 85% 30.21 in 10.0 mi SSE 3.5 mph - N/A   Scattered Clouds
5:21 AM 60.1 °F - 56.3 °F 87% 30.21 in 10.0 mi SSE 3.5 mph - N/A   Scattered Clouds
5:41 AM 60.6 °F - 57.2 °F 88% 30.21 in 10.0 mi South 5.8 mph - N/A   Clear
5:50 AM 60.8 °F - 57.2 °F 88% 30.21 in 10.0 mi South 6.9 mph - N/A   Scattered Clouds
6:01 AM 62.1 °F - 58.3 °F 87% 30.21 in 10.0 mi South 8.1 mph - N/A   Scattered Clouds
6:21 AM 62.8 °F - 58.6 °F 86% 30.21 in 10.0 mi South 4.6 mph - N/A   Scattered Clouds
6:41 AM 63.0 °F - 58.6 °F 86% 30.22 in 10.0 mi SSW 4.6 mph - N/A   Scattered Clouds
6:50 AM 62.6 °F - 59.0 °F 88% 30.23 in 10.0 mi SSW 5.8 mph - N/A   Mostly Cloudy
7:01 AM 63.5 °F - 58.8 °F 85% 30.23 in 10.0 mi SSW 5.8 mph - N/A   Mostly Cloudy
7:21 AM 63.0 °F - 59.7 °F 89% 30.23 in 10.0 mi South 8.1 mph - N/A Rain Light Rain
7:41 AM 62.6 °F - 59.4 °F 89% 30.23 in 10.0 mi South 8.1 mph - N/A   Mostly Cloudy
7:42 AM 62.6 °F - 59.4 °F 89% 30.23 in 10.0 mi South 8.1 mph - N/A   Overcast
7:50 AM 62.6 °F - 59.0 °F 88% 30.23 in 10.0 mi SSE 6.9 mph - N/A   Mostly Cloudy
8:50 AM 66.2 °F - 59.0 °F 78% 30.22 in 10.0 mi South 8.1 mph - N/A   Mostly Cloudy
9:50 AM 64.4 °F - 62.6 °F 94% 30.22 in 10.0 mi South 8.1 mph - N/A   Mostly Cloudy
10:53 AM 66.2 °F - 62.6 °F 88% 30.22 in 10.0 mi Calm Calm - N/A   Overcast
11:53 AM 75.2 °F - 66.2 °F 73% 30.22 in 10.0 mi West 5.8 mph - N/A   Mostly Cloudy
12:54 PM 75.2 °F - 64.4 °F 69% 30.19 in 10.0 mi SW 6.9 mph - N/A   Mostly Cloudy
1:53 PM 80.6 °F 82.7 °F 66.2 °F 61% 30.17 in 10.0 mi WSW 6.9 mph - N/A   Mostly Cloudy
2:53 PM 82.4 °F 84.6 °F 66.2 °F 58% 30.16 in 10.0 mi WSW 11.5 mph - N/A   Mostly Cloudy
3:53 PM 82.4 °F 84.6 °F 66.2 °F 58% 30.15 in 10.0 mi SSW 9.2 mph - N/A   Mostly Cloudy
4:53 PM 82.4 °F 84.6 °F 66.2 °F 58% 30.14 in 10.0 mi South 13.8 mph - N/A   Mostly Cloudy
5:53 PM 80.6 °F 82.7 °F 66.2 °F 61% 30.13 in 10.0 mi South 11.5 mph - N/A   Mostly Cloudy
6:53 PM 78.8 °F - 66.2 °F 65% 30.13 in 10.0 mi South 11.5 mph 17.3 mph N/A   Mostly Cloudy
7:53 PM 75.2 °F - 66.2 °F 73% 30.13 in 10.0 mi South 9.2 mph - N/A   Overcast
8:53 PM 73.4 °F - 66.2 °F 78% 30.12 in 7.0 mi South 11.5 mph 20.7 mph N/A Rain , Thunderstorm Light Thunderstorms and Rain
9:25 PM 71.6 °F - 66.2 °F 83% 30.15 in 7.0 mi SSW 13.8 mph - N/A Rain , Thunderstorm Light Thunderstorms and Rain
11:03 PM 67.1 °F - 67.1 °F 100% 30.16 in 10.0 mi SSW 10.4 mph - N/A   Clear
11:23 PM 68.0 °F - 68.0 °F 100% 30.15 in 10.0 mi SSW 8.1 mph - N/A   Clear
11:43 PM 68.9 °F - 68.9 °F 100% 30.14 in 10.0 mi SSW 6.9 mph - N/A   Clear